Location: Bettgenhausen
(50.6463°N, 7.5681°E)
Time: 05:54:48
(UTC+00:00)

SJ-6B - Pass Details

Date: 27 February 2020
Orbit: 511 x 580 km, 97.6° (Epoch: 28 March)

Event Time Altitude Azimuth Distance (km) Brightness Sun altitude
Exits shadow 19:29:34 37° 205° (SSW) 827 3.7 -23.2°
Maximum altitude 19:30:44 53° 259° (W) 648 3.4 -23.4°
Drops below altitude 10° 19:34:30 10° 338° (NNW) 1,782 5.9 -24.0°
Sets 19:36:41 0° 343° (NNW) 2,687 6.8 -24.3°
